カタログに戻る

METEOR 2-5 DEB

運用中PO
NORAD 45509·DEBRIS·🇷🇺 Russia

打ち上げ Oct 31, 1979 から Plesetsk Cosmodrome

Loading…

次のパス (今後24時間)

TLE

古いSource: Space-Track

元期: Aug 21, 2026, 05:52 UTC

1 45509U 79095CR  26233.24494507  .00004548  00000-0  13024-2 0  9997
2 45509  81.1860  50.0528 0003172 348.4391 131.2466 14.44913862654712

AllMySatでMETEOR 2-5 DEBをリアルタイム追跡

Download on the App Store